Weather History for Peru, IL

Change the Weather History Date:

Monday, December 17, 2012

  Actual Average Record
Temperature  
Mean Temperature 35 °F -  
Max Temperature 37 °F 35 °F 57 °F (1984)
Min Temperature 33 °F 17 °F -10 °F (1989)
Degree Days  
Heating Degree Days 30    
Moisture  
Dew Point 32 °F    
Average Humidity 88    
Maximum Humidity 93    
Minimum Humidity 82    
Precipitation  
Precipitation 0.00 in - - ()
Sea Level Pressure  
Sea Level Pressure 29.72 in    
Wind  
Wind Speed 4 mph (NW)    
Max Wind Speed 7 mph    
Max Gust Speed -    
Visibility 7 miles    
Events      
Averages and records for this station are not official NWS values.
T = Trace of Precipitation, MM = Missing Value Source: NWS Daily Summary

Daily Weather History Graph

Daily Weather History Graph

Search for Another Location

Airport:

Trip Planner

Search our weather history database for the weather conditions in past years. The results will help you decide how hot, cold, wet, or windy it might be!

Date:

Astronomy

Dec. 17, 2012 Rise Set
Actual Time 7:17 AM CST 4:28 PM CST
Civil Twilight 6:45 AM CST 5:00 PM CST
Nautical Twilight 6:10 AM CST 5:35 PM CST
Astronomical Twilight 5:37 AM CST 6:08 PM CST
Moon 10:22 AM CST (12/17) 9:53 PM CST (12/17)
Length of Visible Light 10h 14m
Length of Day
9h 11m
Waxing Crescent, 25% of the Moon is Illuminated
Dec 17
Waxing Crescent
Dec 19
First Quarter
Dec 28
Full
Jan 4
Last Quarter
Jan 11
New

Hourly Weather History & Observations

Time (CST) Temp. Windchill Dew Point Humidity Pressure Visibility Wind Dir Wind Speed Gust Speed Precip Events Conditions
12:15 AM 37.6 °F 32.3 °F 33.4 °F 85% 29.75 in 10.0 mi WNW 6.9 mph - N/A   Overcast
12:35 AM 37.4 °F 32.8 °F 33.8 °F 87% 29.74 in 10.0 mi NW 5.8 mph - N/A   Overcast
12:55 AM 37.4 °F 34.9 °F 33.8 °F 87% 29.74 in 7.0 mi NW 3.5 mph - N/A   Overcast
1:15 AM 37.6 °F - 33.4 °F 85% 29.75 in 10.0 mi Calm Calm - N/A   Overcast
1:35 AM 37.4 °F - 33.3 °F 85% 29.74 in 7.0 mi Calm Calm - N/A   Overcast
1:55 AM 37.4 °F 33.8 °F 33.8 °F 87% 29.74 in 7.0 mi NW 4.6 mph - N/A   Overcast
2:15 AM 37.4 °F - 34.0 °F 87% 29.74 in 7.0 mi Calm Calm - N/A   Overcast
2:35 AM 37.4 °F - 33.8 °F 87% 29.74 in 7.0 mi Calm Calm - N/A   Overcast
2:55 AM 37.0 °F 33.3 °F 33.8 °F 88% 29.74 in 7.0 mi WNW 4.6 mph - N/A   Overcast
3:35 AM 37.4 °F 34.9 °F 33.8 °F 87% 29.73 in 5.0 mi WNW 3.5 mph - N/A   Overcast
3:55 AM 36.5 °F 32.7 °F 34.0 °F 91% 29.73 in 5.0 mi NW 4.6 mph - N/A   Overcast
4:15 AM 36.3 °F 33.7 °F 33.8 °F 91% 29.74 in 5.0 mi West 3.5 mph - N/A   Overcast
4:35 AM 36.0 °F 32.1 °F 33.8 °F 92% 29.74 in 5.0 mi West 4.6 mph - N/A   Overcast
4:55 AM 35.6 °F 29.9 °F 33.4 °F 92% 29.74 in 5.0 mi WNW 6.9 mph - N/A   Overcast
5:15 AM 35.6 °F 30.7 °F 33.4 °F 92% 29.73 in 5.0 mi NW 5.8 mph - N/A   Overcast
5:35 AM 35.6 °F 30.7 °F 33.8 °F 93% 29.74 in 4.0 mi NW 5.8 mph - N/A   Overcast
5:55 AM 35.6 °F 30.7 °F 33.3 °F 91% 29.73 in 5.0 mi NW 5.8 mph - N/A   Overcast
6:15 AM 35.6 °F 31.7 °F 33.3 °F 91% 29.74 in 5.0 mi NW 4.6 mph - N/A   Overcast
6:35 AM 35.6 °F 30.7 °F 33.1 °F 91% 29.74 in 5.0 mi NW 5.8 mph - N/A   Overcast
6:55 AM 35.6 °F 30.7 °F 33.1 °F 91% 29.73 in 5.0 mi NW 5.8 mph - N/A   Overcast
7:15 AM 35.4 °F 32.6 °F 32.9 °F 91% 29.73 in 5.0 mi NW 3.5 mph - N/A   Overcast
7:35 AM 35.6 °F 30.7 °F 32.5 °F 89% 29.72 in 7.0 mi North 5.8 mph - N/A   Overcast
7:55 AM 35.2 °F 32.4 °F 32.4 °F 89% 29.72 in 5.0 mi North 3.5 mph - N/A   Overcast
8:15 AM 35.2 °F - 32.4 °F 89% 29.72 in 5.0 mi Calm Calm - N/A   Overcast
8:35 AM 35.2 °F - 32.2 °F 89% 29.72 in 5.0 mi Calm Calm - N/A   Overcast
8:55 AM 35.6 °F 31.7 °F 32.2 °F 87% 29.73 in 5.0 mi North 4.6 mph - N/A   Overcast
9:15 AM 35.6 °F - 32.0 °F 87% 29.73 in 7.0 mi Calm Calm - N/A   Overcast
9:55 AM 35.8 °F - 32.0 °F 86% 29.74 in 7.0 mi Calm Calm - N/A   Overcast
10:35 AM 35.8 °F - 32.0 °F 86% 29.73 in 7.0 mi Calm Calm - N/A   Overcast
10:55 AM 36.0 °F - 32.0 °F 86% 29.72 in 7.0 mi Calm Calm - N/A   Overcast
11:15 AM 35.8 °F - 32.0 °F 86% 29.72 in 7.0 mi Calm Calm - N/A   Overcast
11:35 AM 35.6 °F - 32.0 °F 87% 29.71 in 7.0 mi Calm Calm - N/A   Overcast
11:55 AM 36.0 °F - 32.0 °F 86% 29.70 in 7.0 mi Calm Calm - N/A   Overcast
12:15 PM 36.3 °F 33.7 °F 32.5 °F 86% 29.70 in 7.0 mi West 3.5 mph - N/A   Overcast
12:35 PM 36.3 °F - 32.7 °F 87% 29.68 in 5.0 mi Calm Calm - N/A   Overcast
12:55 PM 36.3 °F 33.7 °F 32.9 °F 87% 29.68 in 5.0 mi WNW 3.5 mph - N/A   Overcast
1:15 PM 36.0 °F 31.1 °F 32.9 °F 89% 29.68 in 5.0 mi WNW 5.8 mph - N/A   Overcast
1:35 PM 36.0 °F 31.1 °F 32.9 °F 89% 29.68 in 4.0 mi WNW 5.8 mph - N/A   Overcast
1:55 PM 36.0 °F 30.3 °F 33.1 °F 89% 29.68 in 5.0 mi WNW 6.9 mph - N/A   Overcast
2:15 PM 36.0 °F 30.3 °F 33.1 °F 89% 29.68 in 5.0 mi WNW 6.9 mph - N/A   Overcast
2:35 PM 35.8 °F 30.9 °F 32.9 °F 89% 29.68 in 5.0 mi WNW 5.8 mph - N/A   Overcast
2:55 PM 36.0 °F 30.3 °F 32.7 °F 88% 29.68 in 5.0 mi NW 6.9 mph - N/A   Overcast
3:15 PM 36.1 °F 32.3 °F 32.5 °F 87% 29.67 in 7.0 mi NW 4.6 mph - N/A   Overcast
3:35 PM 36.5 °F 31.0 °F 32.9 °F 87% 29.68 in 7.0 mi NW 6.9 mph - N/A   Overcast
3:55 PM 36.5 °F 31.8 °F 32.5 °F 86% 29.68 in 7.0 mi NW 5.8 mph - N/A   Overcast
6:15 PM 35.6 °F 30.7 °F 31.6 °F 85% 29.69 in 7.0 mi NNW 5.8 mph - N/A   Overcast
6:35 PM 35.6 °F 32.8 °F 31.8 °F 86% 29.70 in 7.0 mi North 3.5 mph - N/A   Overcast
6:55 PM 35.4 °F 30.5 °F 31.6 °F 86% 29.71 in 7.0 mi NNW 5.8 mph - N/A   Overcast
7:15 PM 35.1 °F 32.2 °F 31.8 °F 88% 29.72 in 7.0 mi NW 3.5 mph - N/A   Overcast
7:35 PM 35.1 °F 31.0 °F 31.8 °F 88% 29.72 in 7.0 mi NW 4.6 mph - N/A   Overcast
7:55 PM 34.7 °F 29.6 °F 31.3 °F 87% 29.72 in 7.0 mi NW 5.8 mph - N/A   Overcast
8:15 PM 34.7 °F 29.6 °F 31.1 °F 87% 29.72 in 7.0 mi NW 5.8 mph - N/A   Overcast
8:35 PM 34.3 °F 29.2 °F 30.9 °F 87% 29.73 in 7.0 mi NW 5.8 mph - N/A   Overcast
9:15 PM 34.3 °F 31.4 °F 30.6 °F 86% 29.73 in 10.0 mi WNW 3.5 mph - N/A   Overcast
9:55 PM 34.3 °F - 29.3 °F 82% 29.73 in 10.0 mi Calm Calm - N/A   Overcast
10:35 PM 34.3 °F - 29.3 °F 82% 29.74 in 10.0 mi Calm Calm - N/A   Overcast
10:55 PM 34.2 °F 30.0 °F 29.3 °F 82% 29.75 in 10.0 mi West 4.6 mph - N/A   Overcast
11:15 PM 33.6 °F 29.4 °F 29.1 °F 84% 29.75 in 10.0 mi NW 4.6 mph - N/A   Overcast
11:35 PM 34.2 °F 31.2 °F 30.2 °F 85% 29.75 in 7.0 mi West 3.5 mph - N/A   Overcast
11:55 PM 34.3 °F 31.4 °F 30.4 °F 85% 29.75 in 7.0 mi West 3.5 mph - N/A   Overcast